Location: Hurstbourne Priors
(51.2000°N, 1.3667°W)
Time: 16:46:00
(UTC+00:00)

Cosmos 2344 - Pass Details

Date: 09 April 2020
Orbit: 1251 x 2991 km, 63.3° (Epoch: 28 May)

Event Time Altitude Azimuth Distance (km) Brightness Sun altitude
Rises 22:22:02 0° 315° (NW) 4,553 7.7 -26.6°
Reaches altitude 10° 22:24:38 10° 314° (NW) 3,706 6.9 -26.8°
Maximum altitude 22:33:57 83° 229° (SW) 1,900 4.3 -27.5°
Enters shadow 22:38:44 44° 147° (SSE) 2,688 4.7 -27.8°
